When you browse on this site, cookies collect data to enhance your experience and personalize the content and advertising you see.
Visit our Privacy Policy to learn more. By continuing to use the site, you agree to this use of cookies and data.
  • En España
  • Lista de países
  • Para 7 días
  • Temperatura del agua
  • Mapa Satelital
  • El tiempo en el mapa
  • Informadores
  • user-avatar
    Iniciar sesión

    Tiempo cada hora Saurimo

    Hoy, 16 Enero, Miércoles

    Tiempo Temperatura Precipitaciones Viento Presión Humedad
    00:00 +19°C° 0 mm 1 mps 670 mmHg 96%
    01:00 +19°C° 0 mm 1 mps 670 mmHg 96%
    02:00 +17°C° 0 mm 0 mps 670 mmHg 96%
    03:00 +17°C° 0 mm 0 mps 670 mmHg 97%
    04:00 +17°C° 0 mm 0 mps 670 mmHg 97%
    05:00 +17°C° 0 mm 0 mps 670 mmHg 95%
    06:00 +18°C° 0 mm 0 mps 671 mmHg 94%
    07:00 +19°C° 0 mm 0 mps 671 mmHg 92%
    08:00 +23°C° 0.1 mm 1 mps 672 mmHg 83%
    09:00 +25°C° 0.1 mm 1 mps 672 mmHg 73%
    10:00 +27°C° 0.1 mm 2 mps 672 mmHg 64%
    11:00 +27°C° 0.9 mm 2 mps 672 mmHg 68%
    12:00 +27°C° 0.9 mm 2 mps 671 mmHg 71%
    13:00 +27°C° 0.9 mm 2 mps 670 mmHg 75%
    14:00 +27°C° 1.4 mm 2 mps 670 mmHg 77%
    15:00 +26°C° 1.4 mm 2 mps 669 mmHg 80%
    16:00 +26°C° 1.4 mm 2 mps 669 mmHg 82%
    17:00 +24°C° 1.1 mm 2 mps 669 mmHg 86%
    18:00 +23°C° 1.1 mm 1 mps 669 mmHg 89%
    19:00 +21°C° 1.1 mm 1 mps 669 mmHg 93%
    20:00 +21°C° 0 mm 1 mps 670 mmHg 93%
    21:00 +21°C° 0 mm 1 mps 670 mmHg 94%
    22:00 +21°C° 0 mm 1 mps 671 mmHg 94%
    23:00 +21°C° 0 mm 1 mps 671 mmHg 94%

    Mañana, 17 Enero, Jueves

    Tiempo Temperatura Precipitaciones Viento Presión Humedad
    00:00 +20°C° 0 mm 1 mps 670 mmHg 94%
    01:00 +18°C° 0 mm 0 mps 670 mmHg 94%
    02:00 +18°C° 0 mm 0 mps 670 mmHg 95%
    03:00 +18°C° 0 mm 0 mps 670 mmHg 95%
    04:00 +18°C° 0 mm 0 mps 669 mmHg 95%
    05:00 +18°C° 0 mm 0 mps 670 mmHg 94%
    06:00 +19°C° 0 mm 0 mps 671 mmHg 93%
    07:00 +19°C° 0 mm 0 mps 671 mmHg 91%
    08:00 +23°C° 0.5 mm 1 mps 671 mmHg 88%
    09:00 +24°C° 0.5 mm 1 mps 672 mmHg 84%
    10:00 +26°C° 0.5 mm 2 mps 672 mmHg 80%
    11:00 +26°C° 0.9 mm 2 mps 671 mmHg 78%
    12:00 +27°C° 0.9 mm 2 mps 671 mmHg 76%
    13:00 +27°C° 0.9 mm 3 mps 670 mmHg 74%
    14:00 +27°C° 1.8 mm 3 mps 670 mmHg 78%
    15:00 +26°C° 1.8 mm 2 mps 669 mmHg 82%
    16:00 +25°C° 1.8 mm 2 mps 669 mmHg 85%
    17:00 +24°C° 1.1 mm 2 mps 669 mmHg 88%
    18:00 +23°C° 1.1 mm 2 mps 669 mmHg 91%
    19:00 +21°C° 1.1 mm 1 mps 669 mmHg 94%
    20:00 +21°C° 0.6 mm 1 mps 670 mmHg 94%
    21:00 +21°C° 0.6 mm 1 mps 671 mmHg 94%
    22:00 +21°C° 0.6 mm 1 mps 671 mmHg 95%
    23:00 +21°C° 0.5 mm 1 mps 671 mmHg 95%

    Pasado mañana, 18 Enero, Viernes

    Tiempo Temperatura Precipitaciones Viento Presión Humedad
    00:00 +21°C° 0.5 mm 1 mps 670 mmHg 95%
    01:00 +18°C° 0.5 mm 0 mps 670 mmHg 95%
    02:00 +18°C° 0.1 mm 0 mps 670 mmHg 95%
    03:00 +18°C° 0.1 mm 0 mps 669 mmHg 95%
    04:00 +18°C° 0.1 mm 0 mps 669 mmHg 95%
    05:00 +18°C° 0 mm 0 mps 670 mmHg 94%
    06:00 +18°C° 0 mm 0 mps 670 mmHg 93%
    07:00 +19°C° 0 mm 0 mps 671 mmHg 92%
    08:00 +22°C° 0.1 mm 1 mps 671 mmHg 88%
    09:00 +23°C° 0.1 mm 1 mps 672 mmHg 85%
    10:00 +23°C° 0.1 mm 1 mps 672 mmHg 81%
    11:00 +24°C° 0.1 mm 1 mps 671 mmHg 76%
    12:00 +25°C° 0.1 mm 1 mps 671 mmHg 71%
    13:00 +26°C° 0.1 mm 1 mps 670 mmHg 65%
    14:00 +26°C° 0.7 mm 1 mps 670 mmHg 71%
    15:00 +25°C° 0.7 mm 1 mps 669 mmHg 76%
    16:00 +25°C° 0.7 mm 1 mps 669 mmHg 82%
    17:00 +24°C° 0.9 mm 1 mps 669 mmHg 85%
    18:00 +23°C° 0.9 mm 1 mps 670 mmHg 89%
    19:00 +21°C° 0.9 mm 1 mps 670 mmHg 93%
    20:00 +21°C° 0.5 mm 1 mps 670 mmHg 93%
    21:00 +21°C° 0.5 mm 1 mps 671 mmHg 94%
    22:00 +21°C° 0.5 mm 1 mps 671 mmHg 95%
    23:00 +18°C° 0.4 mm 0 mps 671 mmHg 95%

    19 Enero, Sábado

    Tiempo Temperatura Precipitaciones Viento Presión Humedad
    00:00 +18°C° 0.4 mm 0 mps 670 mmHg 95%
    01:00 +18°C° 0.4 mm 0 mps 670 mmHg 95%
    02:00 +18°C° 0.1 mm 0 mps 669 mmHg 95%
    03:00 +18°C° 0.1 mm 0 mps 669 mmHg 95%
    04:00 +19°C° 0.1 mm 1 mps 669 mmHg 95%
    05:00 +18°C° 0 mm 0 mps 670 mmHg 94%
    06:00 +18°C° 0 mm 0 mps 670 mmHg 93%
    07:00 +19°C° 0 mm 0 mps 671 mmHg 92%
    08:00 +22°C° 0.6 mm 1 mps 671 mmHg 89%
    09:00 +23°C° 0.6 mm 1 mps 672 mmHg 85%
    10:00 +25°C° 0.6 mm 1 mps 672 mmHg 82%
    11:00 +25°C° 1.2 mm 1 mps 672 mmHg 81%
    12:00 +26°C° 1.2 mm 2 mps 671 mmHg 79%
    13:00 +26°C° 1.2 mm 2 mps 670 mmHg 78%
    14:00 +26°C° 1.5 mm 2 mps 670 mmHg 80%
    15:00 +26°C° 1.5 mm 2 mps 670 mmHg 81%
    16:00 +25°C° 1.5 mm 2 mps 669 mmHg 83%
    17:00 +24°C° 1.1 mm 2 mps 670 mmHg 86%
    18:00 +23°C° 1.1 mm 1 mps 670 mmHg 89%
    19:00 +22°C° 1.1 mm 1 mps 670 mmHg 92%
    20:00 +21°C° 0.5 mm 1 mps 671 mmHg 93%
    21:00 +21°C° 0.5 mm 1 mps 671 mmHg 94%
    22:00 +21°C° 0.5 mm 1 mps 672 mmHg 94%
    23:00 +20°C° 0.1 mm 1 mps 671 mmHg 95%

    20 Enero, Domingo

    Tiempo Temperatura Precipitaciones Viento Presión Humedad
    00:00 +20°C° 0.1 mm 1 mps 670 mmHg 96%
    01:00 +20°C° 0.1 mm 1 mps 670 mmHg 96%
    02:00 +19°C° 0.2 mm 1 mps 670 mmHg 96%
    03:00 +19°C° 0.2 mm 1 mps 670 mmHg 96%
    04:00 +19°C° 0.2 mm 1 mps 670 mmHg 96%
    05:00 +20°C° 0.2 mm 1 mps 670 mmHg 95%
    06:00 +20°C° 0.2 mm 1 mps 671 mmHg 95%
    07:00 +20°C° 0.2 mm 1 mps 671 mmHg 94%
    08:00 +21°C° 0.1 mm 1 mps 671 mmHg 92%
    09:00 +22°C° 0.1 mm 1 mps 671 mmHg 90%
    10:00 +23°C° 0.1 mm 2 mps 672 mmHg 88%
    11:00 +24°C° 0.5 mm 1 mps 671 mmHg 82%
    12:00 +25°C° 0.5 mm 1 mps 671 mmHg 75%
    13:00 +26°C° 0.5 mm 1 mps 671 mmHg 69%
    14:00 +26°C° 0.4 mm 1 mps 670 mmHg 70%
    15:00 +26°C° 0.4 mm 1 mps 670 mmHg 70%
    16:00 +26°C° 0.4 mm 1 mps 670 mmHg 71%
    17:00 +25°C° 0.2 mm 1 mps 670 mmHg 77%
    18:00 +23°C° 0.2 mm 1 mps 670 mmHg 83%
    19:00 +19°C° 0.2 mm 0 mps 670 mmHg 88%
    20:00 +21°C° 0 mm 1 mps 670 mmHg 90%
    21:00 +20°C° 0 mm 1 mps 670 mmHg 91%
    22:00 +20°C° 0 mm 1 mps 671 mmHg 93%
    23:00 +20°C° 0.3 mm 1 mps 671 mmHg 94%

    21 Enero, Lunes

    Tiempo Temperatura Precipitaciones Viento Presión Humedad
    00:00 +20°C° 0.3 mm 1 mps 670 mmHg 95%
    01:00 +19°C° 0.3 mm 1 mps 670 mmHg 96%
    02:00 +20°C° 0 mm 1 mps 670 mmHg 95%
    03:00 +20°C° 0 mm 1 mps 670 mmHg 95%
    04:00 +20°C° 0 mm 1 mps 670 mmHg 95%
    05:00 +20°C° 0 mm 1 mps 670 mmHg 93%
    06:00 +21°C° 0 mm 1 mps 671 mmHg 92%
    07:00 +21°C° 0 mm 1 mps 671 mmHg 91%
    08:00 +22°C° 0.7 mm 1 mps 671 mmHg 88%
    09:00 +24°C° 0.7 mm 2 mps 672 mmHg 85%
    10:00 +25°C° 0.7 mm 2 mps 672 mmHg 82%
    11:00 +26°C° 1.3 mm 3 mps 671 mmHg 80%
    12:00 +26°C° 1.3 mm 3 mps 671 mmHg 78%
    13:00 +27°C° 1.3 mm 3 mps 670 mmHg 77%
    14:00 +27°C° 1 mm 3 mps 669 mmHg 78%
    15:00 +26°C° 1 mm 2 mps 669 mmHg 80%
    16:00 +26°C° 1 mm 2 mps 668 mmHg 81%
    17:00 +24°C° 0.2 mm 2 mps 669 mmHg 85%
    18:00 +23°C° 0.2 mm 1 mps 669 mmHg 89%
    19:00 +21°C° 0.2 mm 1 mps 669 mmHg 93%
    20:00 +21°C° 0 mm 1 mps 669 mmHg 93%
    21:00 +21°C° 0 mm 1 mps 670 mmHg 93%
    22:00 +21°C° 0 mm 1 mps 670 mmHg 93%
    23:00 +21°C° 0 mm 1 mps 670 mmHg 94%
    Mostrar más